Weather reports worldwide

Advertisment
Tulloch Bridge, United Kingdom (3047): temperature & dewpoint: 13.08.2018 20:00:00 - 19.08.2018 20:00:00 (BST)Tulloch Bridge, United Kingdom (3047): temperature -20cm & temperature -100cm: 13.08.2018 20:00:00 - 19.08.2018 20:00:00 (BST)Tulloch Bridge, United Kingdom (3047): wind speed & gusts: 13.08.2018 20:00:00 - 19.08.2018 20:00:00 (BST)Tulloch Bridge, United Kingdom (3047): wind direction: 13.08.2018 20:00:00 - 19.08.2018 20:00:00 (BST)Tulloch Bridge, United Kingdom (3047): reduced air pressure: 13.08.2018 20:00:00 - 19.08.2018 20:00:00 (BST)Tulloch Bridge, United Kingdom (3047): visibility: 13.08.2018 20:00:00 - 19.08.2018 20:00:00 (BST)Tulloch Bridge, United Kingdom (3047): precipitation: 13.08.2018 20:00:00 - 19.08.2018 20:00:00 (BST)
Date & Time tt [°C] td [°C] tt -20cm [°C] tt -100cm [°C] ff [km/h] ff [kn] fx [km/h] fx [kn] dd ppp [hPa] vv [km] rr [mm]
19.08.2018 20:00:00 - - - - - - - - - - - -
19.08.2018 19:00:00 16,0 12,1 - - 11 6 - - NW 1016,8 35 0,0
19.08.2018 18:00:00 16,5 11,2 - - 11 6 - - W 1016,8 45 0,0
19.08.2018 17:00:00 16,5 10,5 - - 11 6 - - NW 1016,3 30 0,0
19.08.2018 16:00:00 16,9 11,1 - - 8 4 - - WNW 1015,9 35 0,0
19.08.2018 15:00:00 15,7 11,4 - - 4 2 - - WSW 1015,8 40 0,0
19.08.2018 14:00:00 14,6 12,0 - - 9 5 - - WNW 1015,9 40 0,0
19.08.2018 13:00:00 14,1 11,8 - - 4 2 - - NNE 1015,6 45 0,0
19.08.2018 12:00:00 13,6 11,6 - - 5 3 - - NE 1014,9 40 0,0
19.08.2018 11:00:00 12,7 10,7 - - 5 3 - - N 1014,8 30 0,0
19.08.2018 10:00:00 12,4 10,8 14,9 14,5 8 4 - - E 1014,3 40 0,2
19.08.2018 09:00:00 11,5 10,4 - - 5 3 - - E 1013,9 35 0,2
19.08.2018 08:00:00 11,4 10,9 - - 8 4 - - NNE 1013,6 27 0,8
19.08.2018 07:00:00 11,3 10,8 - - 4 2 - - NE 1013,0 10 0,8
19.08.2018 06:00:00 11,4 11,1 - - 4 2 - - NNW 1012,7 7 0,6
19.08.2018 05:00:00 11,6 11,0 - - 4 2 - - N 1012,7 7 0,0
19.08.2018 04:00:00 11,5 11,0 - - 4 2 - - SE 1013,1 50 0,0
19.08.2018 03:00:00 11,3 11,1 - - 5 3 - - NNW 1013,7 21 0,0
19.08.2018 02:00:00 11,2 11,0 - - 0 0 - - N 1014,0 13 0,0
19.08.2018 01:00:00 11,1 11,0 - - 2 1 - - SSW 1014,3 9 0,0
19.08.2018 00:00:00 11,0 10,9 - - 4 2 - - NW 1014,4 13 0,2
18.08.2018 23:00:00 11,2 11,0 - - 5 3 - - NNW 1014,6 4,4 0,2
18.08.2018 22:00:00 11,3 10,8 - - 5 3 - - NNW 1014,9 3,6 0,0
18.08.2018 21:00:00 12,1 10,2 - - 8 4 - - SW 1014,4 11 0,0
18.08.2018 20:00:00 12,6 10,1 - - 9 5 - - SSW 1013,9 30 0,0
18.08.2018 19:00:00 13,3 9,7 - - 9 5 - - W 1013,5 35 0,0
18.08.2018 18:00:00 13,9 9,8 - - 18 10 - - W 1013,2 30 0,0
18.08.2018 17:00:00 14,6 9,3 - - 13 7 - - W 1012,5 24 0,0
18.08.2018 16:00:00 14,8 10,1 - - 15 8 - - W 1012,0 25 0,0
18.08.2018 15:00:00 14,8 9,0 - - 16 9 - - W 1011,7 24 0,0
18.08.2018 14:00:00 15,0 8,0 - - 18 10 48 26 W 1011,2 18 0,0
18.08.2018 13:00:00 13,7 10,0 - - 15 8 - - W 1011,2 21 0,0
18.08.2018 12:00:00 13,9 8,6 - - 18 10 48 26 SW 1010,6 18 0,0
18.08.2018 11:00:00 14,0 8,4 - - 21 11 - - SSW 1010,3 17 0,0
18.08.2018 10:00:00 14,1 7,9 14,7 14,7 26 14 - - SW 1009,3 18 0,0
18.08.2018 09:00:00 13,6 7,4 - - 15 8 46 25 WSW 1008,9 23 0,0
18.08.2018 08:00:00 12,8 8,7 - - 21 11 50 27 WSW 1008,5 15 0,0
18.08.2018 07:00:00 13,2 8,7 - - 21 11 - - SW 1007,8 30 0,0
18.08.2018 06:00:00 12,9 8,8 - - 18 10 57 31 W 1008,0 24 0,0
18.08.2018 05:00:00 13,6 8,7 - - 26 14 48 26 SW 1007,7 26 0,0
18.08.2018 04:00:00 13,4 8,8 - - 22 12 48 26 SW 1008,3 27 0,0
18.08.2018 03:00:00 13,6 8,5 - - 26 14 52 28 SW 1008,7 20 0,0
18.08.2018 02:00:00 13,1 8,2 - - 26 14 52 28 SW 1008,0 18 0,0
18.08.2018 01:00:00 12,5 8,2 - - 11 6 - - SW 1008,5 23 0,0
18.08.2018 00:00:00 12,7 8,3 - - 13 7 - - SW 1008,9 27 0,0
17.08.2018 23:00:00 12,6 8,8 - - 18 10 - - SSW 1008,9 24 0,0
17.08.2018 22:00:00 13,0 9,8 - - 18 10 - - SSW 1008,5 17 0,0
17.08.2018 21:00:00 13,2 9,7 - - 16 9 - - SW 1008,1 30 0,2
17.08.2018 20:00:00 14,1 10,0 - - 22 12 - - SW 1007,6 45 0,0
17.08.2018 19:00:00 14,8 11,8 - - 22 12 - - SSW 1007,1 45 0,0
17.08.2018 18:00:00 14,7 13,3 - - 18 10 - - SSW 1006,6 9 0,0
17.08.2018 17:00:00 14,8 13,3 - - 22 12 - - SSW 1006,7 11 0,2
17.08.2018 16:00:00 13,1 12,3 - - 15 8 - - S 1007,2 7 0,2
17.08.2018 15:00:00 12,5 11,7 - - 18 10 - - SSW 1007,9 6 0,4
17.08.2018 14:00:00 12,1 11,1 - - 15 8 - - S 1008,5 8 0,2
17.08.2018 13:00:00 12,1 10,8 - - 18 10 - - S 1008,5 18 0,0
17.08.2018 12:00:00 12,0 10,5 - - 24 13 - - S 1009,0 10 0,4
17.08.2018 11:00:00 12,1 11,2 - - 21 11 - - S 1009,4 5 0,2
17.08.2018 10:00:00 10,8 10,4 15,0 14,7 15 8 - - S 1010,0 7 0,6
17.08.2018 09:00:00 10,6 9,3 - - 13 7 - - SSW 1010,3 7 0,0
17.08.2018 08:00:00 9,8 8,7 - - 13 7 - - WSW 1010,5 23 0,0
17.08.2018 07:00:00 10,9 7,1 - - 15 8 - - SW 1010,0 14 0,0
17.08.2018 06:00:00 10,3 8,1 - - 15 8 - - SW 1010,1 45 0,2
17.08.2018 05:00:00 10,4 8,4 - - 11 6 - - SW 1009,6 50 0,0
17.08.2018 04:00:00 10,9 8,6 - - 15 8 - - SSW 1009,4 50 0,0
17.08.2018 03:00:00 11,0 8,9 - - 15 8 - - SW 1009,2 30 0,2
17.08.2018 02:00:00 10,1 8,4 - - 9 5 - - WNW 1009,2 18 0,0
17.08.2018 01:00:00 11,1 7,5 - - 16 9 - - SW 1009,1 50 0,0
17.08.2018 00:00:00 11,0 8,4 - - 15 8 - - SW 1009,1 50 0,2
16.08.2018 23:00:00 10,7 9,0 - - 8 4 - - WSW 1008,8 11 0,6
16.08.2018 22:00:00 11,0 8,7 - - 11 6 - - SW 1008,6 16 1,2
16.08.2018 21:00:00 11,8 8,1 - - 13 7 - - SW 1008,0 45 0,0
16.08.2018 20:00:00 11,7 8,3 - - 9 5 - - SW 1007,5 45 0,0
16.08.2018 19:00:00 13,4 7,5 - - 13 7 - - WNW 1006,8 50 0,0
16.08.2018 18:00:00 14,1 7,7 - - 15 8 - - W 1006,3 23 0,0
16.08.2018 17:00:00 13,6 8,3 - - 11 6 - - WSW 1006,0 50 0,2
16.08.2018 16:00:00 12,6 8,4 - - 11 6 - - WNW 1005,9 12 1,4
16.08.2018 15:00:00 12,6 9,6 - - 15 8 - - SW 1005,2 22 0,2
16.08.2018 14:00:00 13,4 10,3 - - 16 9 - - SSW 1004,4 35 0,4
16.08.2018 13:00:00 12,4 9,3 - - 16 9 - - SW 1004,5 9 0,2
16.08.2018 12:00:00 12,2 10,4 - - 16 9 - - SSW 1004,1 35 0,0
16.08.2018 11:00:00 13,2 9,8 - - 21 11 - - SSW 1003,8 - 0,2
16.08.2018 10:00:00 11,2 9,8 15,0 14,7 15 8 - - SSW 1003,9 12 0,0
16.08.2018 09:00:00 10,6 9,7 - - 11 6 - - WSW 1003,7 15 0,8
16.08.2018 08:00:00 10,4 9,4 - - 9 5 - - SSW 1003,7 9 0,4
16.08.2018 07:00:00 10,4 9,3 - - 15 8 - - SSW 1003,3 30 0,6
16.08.2018 06:00:00 10,4 8,8 - - 13 7 - - SSW 1003,1 26 0,2
16.08.2018 05:00:00 10,1 9,0 - - 15 8 - - SSW 1003,5 9 0,0
16.08.2018 04:00:00 10,7 8,0 - - 8 4 - - SW 1003,6 30 0,0
16.08.2018 03:00:00 10,3 8,1 - - 8 4 - - WSW 1004,0 26 0,0
16.08.2018 02:00:00 11,1 8,9 - - 15 8 - - SSW 1004,1 27 0,0
16.08.2018 01:00:00 11,1 9,3 - - 15 8 - - SSW 1004,0 40 0,0
16.08.2018 00:00:00 11,4 8,3 - - 18 10 - - SW 1004,2 40 0,6
15.08.2018 23:00:00 11,7 10,5 - - 8 4 - - W 1004,0 8 0,2
15.08.2018 22:00:00 12,6 10,0 - - 13 7 - - SSW 1004,2 50 0,2
15.08.2018 21:00:00 12,2 10,8 - - 16 9 - - SSW 1004,3 45 0,0
15.08.2018 20:00:00 12,2 9,8 - - 21 11 46 25 S 1004,6 35 0,2
15.08.2018 19:00:00 13,8 8,6 - - 16 9 - - SSW 1004,6 50 0,0
15.08.2018 18:00:00 13,8 9,3 - - 21 11 - - SSW 1005,0 50 0,0
15.08.2018 17:00:00 13,7 10,8 - - 15 8 - - SSW 1005,9 30 0,0
15.08.2018 16:00:00 13,8 10,1 - - 21 11 - - SSW 1006,3 25 0,0
15.08.2018 15:00:00 13,6 11,1 - - 16 9 - - SSW 1006,5 16 0,0
15.08.2018 14:00:00 15,1 9,5 - - 16 9 - - SW 1006,6 30 0,0
15.08.2018 13:00:00 14,7 10,4 - - 18 10 - - SSW 1006,6 35 0,0
15.08.2018 12:00:00 14,5 10,6 - - 24 13 - - SSW 1006,9 45 0,0
15.08.2018 11:00:00 14,7 11,0 - - 21 11 - - SSW 1006,9 40 0,0
15.08.2018 10:00:00 15,7 11,8 15,7 14,7 28 15 - - SSW 1006,6 50 0,0
15.08.2018 09:00:00 15,0 11,7 - - 26 14 46 25 SSW 1006,7 30 0,0
15.08.2018 08:00:00 14,8 13,1 - - 22 12 - - SSW 1006,7 11 0,8
15.08.2018 07:00:00 15,3 13,1 - - 21 11 - - SW 1006,5 8 0,2
15.08.2018 06:00:00 14,8 13,9 - - 13 7 - - SW 1006,6 8 1,0
15.08.2018 05:00:00 13,7 13,1 - - 15 8 - - SSW 1006,9 5 0,4
15.08.2018 04:00:00 13,1 12,7 - - 11 6 - - SSW 1007,6 3,9 0,4
15.08.2018 03:00:00 13,0 12,4 - - 13 7 - - SSW 1008,5 4,3 0,0
15.08.2018 02:00:00 13,3 12,1 - - 13 7 - - SW 1009,0 11 0,0
15.08.2018 01:00:00 13,2 11,5 - - 11 6 - - S 1009,6 30 0,0
15.08.2018 00:00:00 13,2 11,2 - - 11 6 - - S 1010,1 50 0,0
14.08.2018 23:00:00 13,4 11,2 - - 9 5 - - WSW 1010,6 50 0,0
14.08.2018 22:00:00 13,2 11,6 - - 8 4 - - W 1010,8 50 0,0
14.08.2018 21:00:00 13,8 11,6 - - 9 5 - - WNW 1010,7 50 0,0
14.08.2018 20:00:00 15,2 11,4 - - 13 7 - - WSW 1010,3 50 0,0
14.08.2018 19:00:00 15,8 11,8 - - 18 10 - - SW 1009,8 35 0,0
14.08.2018 18:00:00 16,0 12,7 - - 22 12 - - SSW 1009,5 50 0,0
14.08.2018 17:00:00 17,1 13,9 - - 21 11 - - SW 1009,6 50 0,0
14.08.2018 16:00:00 17,3 14,5 - - 21 11 - - SSW 1009,1 45 0,0
14.08.2018 15:00:00 16,9 14,2 - - 21 11 - - SSW 1009,0 8 0,0
14.08.2018 14:00:00 16,6 14,1 - - 16 9 - - SW 1009,2 40 0,0
14.08.2018 13:00:00 15,8 13,5 - - 15 8 - - SSW 1009,2 35 0,2
14.08.2018 12:00:00 13,6 12,8 - - 8 4 - - WNW 1010,1 13 1,4
14.08.2018 11:00:00 13,7 12,5 - - 13 7 - - SW 1009,7 23 0,2
14.08.2018 10:00:00 13,9 12,1 15,4 14,7 16 9 - - SSW 1010,1 40 0,0
14.08.2018 09:00:00 14,1 12,3 - - 13 7 - - SSW 1009,7 50 0,0
14.08.2018 08:00:00 13,2 11,9 - - 8 4 - - SW 1009,9 18 0,0
14.08.2018 07:00:00 12,9 11,3 - - 13 7 - - SW 1009,8 45 0,0
14.08.2018 06:00:00 12,7 10,9 - - 11 6 - - SSW 1010,2 45 0,0
14.08.2018 05:00:00 12,8 11,1 - - 11 6 - - SW 1010,4 50 0,0
14.08.2018 04:00:00 12,4 11,2 - - 13 7 - - S 1010,3 50 0,0
14.08.2018 03:00:00 12,2 10,9 - - 5 3 - - W 1010,6 50 0,0
14.08.2018 02:00:00 12,0 10,6 - - 5 3 - - S 1010,9 50 0,0
14.08.2018 01:00:00 12,4 11,0 - - 9 5 - - W 1011,2 45 0,0
14.08.2018 00:00:00 12,7 11,2 - - 5 3 - - W 1011,0 50 0,0
13.08.2018 23:00:00 13,1 11,3 - - 8 4 - - SW 1010,7 50 0,0
13.08.2018 22:00:00 13,4 12,0 - - 5 3 - - WSW 1010,5 50 0,0
13.08.2018 21:00:00 13,4 13,1 - - 9 5 - - W 1010,2 45 0,0
13.08.2018 20:00:00 13,4 13,2 - - 13 7 - - WNW 1009,8 15 0,4

tt = temperature
td = dewpoint
tt -20cm = temperature -20cm
tt -100cm = temperature -100cm
ff = wind speed
fx = gusts
dd = wind direction
ppp = reduced air pressure
vv = visibility
rr = precipitation

Next stations